Hourly Data Report for October 05, 2014

All times are specified in Local Standard Time (LST). Add 1 hour to adjust for Daylight Saving Time where and when it is observed.

MONCTON INTL A
NEW BRUNSWICK

46°06'44.000" N
64°40'43.000" W
70.70 m
8103201
71705
YQM

Download Data

Hourly Data (October 2014)
Hourly Data Report for October 5, 2014
Temp Definition
°C
Dew Point Temp Definition
°C
Rel Hum Definition
%
Wind Dir Definition
10's deg

Wind Spd Definition
km/h
Visibility Definition
km
Stn Press Definition
kPa
Hmdx Definition


Wind Chill Definition


Weather Definition


TIME
00:00 Legend Double Dagger 14.4 12.8 90 10 27 24.1 100.13     LegendNANA
01:00 Legend Double Dagger 14.5 12.9 90 11 22 24.1 100.08     LegendNANA
02:00 Legend Double Dagger 14.5 12.9 90 12 25 24.1 100.03     Rain Showers
03:00 Legend Double Dagger 14.3 12.9 91 11 26 24.1 99.96     LegendNANA
04:00 Legend Double Dagger 14.1 12.7 91 10 22 24.1 99.90     LegendNANA
05:00 Legend Double Dagger 14.4 13.1 92 11 22 24.1 99.88     Rain Showers
06:00 Legend Double Dagger 14.3 13.2 93 11 18 16.1 99.91     LegendNANA
07:00 Legend Double Dagger 14.4 13.5 94 11 16 16.1 99.89     LegendNANA
08:00 Legend Double Dagger 14.8 13.7 93 9 17 24.1 99.86     Cloudy
09:00 Legend Double Dagger 16.3 14.3 88 12 27 24.1 99.82     LegendNANA
10:00 Legend Double Dagger 17.1 14.6 85 12 26 24.1 99.72     LegendNANA
11:00 Legend Double Dagger 17.4 14.7 84 13 34 24.1 99.67     Cloudy
12:00 Legend Double Dagger 17.2 14.7 85 14 39 24.1 99.60     LegendNANA
13:00 Legend Double Dagger 16.8 15.3 91 14 20 19.3 99.59     Rain Showers
14:00 Legend Double Dagger 16.7 15.6 93 16 17 19.3 99.58     Rain Showers,Fog
15:00 Legend Double Dagger 16.4 15.4 94 17 21 12.9 99.59     Rain Showers
16:00 Legend Double Dagger 16.2 15.3 94 13 18 19.3 99.57     Rain Showers
17:00 Legend Double Dagger 16.4 15.4 94 15 25 19.3 99.62     Rain Showers
18:00 Legend Double Dagger 16.0 15.1 94 18 12 24.1 99.66     LegendNANA
19:00 Legend Double Dagger 15.2 13.6 90 22 15 12.9 99.77     Rain Showers
20:00 Legend Double Dagger 12.4 11.0 91 19 9 16.1 99.85     Rain Showers
21:00 Legend Double Dagger 12.5 11.4 93 20 9 24.1 99.88     LegendNANA
22:00 Legend Double Dagger 10.7 9.9 95 22 13 24.1 99.96     LegendNANA
23:00 Legend Double Dagger 10.0 9.1 94 22 13 24.1 100.03     Mainly Clear

Notes on Data Quality.

Legend

  • E = Estimated
  • M = Missing
  • NA = Not Available
  • ‡ = Partner data that is not subject to review by the National Climate Archives
Date modified: